TimeCST,TemperatureF,Dew PointF,Humidity,Sea Level PressureIn,VisibilityMPH,Wind Direction,Wind SpeedMPH,Gust SpeedMPH,PrecipitationIn,Events,Conditions,WindDirDegrees,DateUTC
12:28 AM,50.0,46.4,87,29.95,10.0,Calm,Calm,-,0.00,,Mostly Cloudy,0,2014-01-27 06:28:00
12:58 AM,50.0,46.0,86,29.95,10.0,Calm,Calm,-,0.00,,Mostly Cloudy,0,2014-01-27 06:58:00
1:58 AM,48.9,46.0,90,29.94,10.0,Calm,Calm,-,N/A,,Mostly Cloudy,0,2014-01-27 07:58:00
2:58 AM,50.0,48.0,93,29.93,10.0,Calm,Calm,-,N/A,,Mostly Cloudy,0,2014-01-27 08:58:00
3:58 AM,52.0,48.9,89,29.94,10.0,SSW,4.6,-,N/A,,Mostly Cloudy,210,2014-01-27 09:58:00
4:58 AM,52.0,48.9,89,29.94,10.0,SSW,3.5,-,N/A,,Mostly Cloudy,200,2014-01-27 10:58:00
5:58 AM,52.0,50.0,93,29.94,10.0,Calm,Calm,-,N/A,,Scattered Clouds,0,2014-01-27 11:58:00
6:33 AM,51.8,48.2,88,29.96,1.8,Calm,Calm,-,N/A,,Mostly Cloudy,0,2014-01-27 12:33:00
6:50 AM,48.2,48.2,100,29.95,3.0,Calm,Calm,-,N/A,,Mostly Cloudy,0,2014-01-27 12:50:00
6:58 AM,52.0,50.0,93,29.95,5.0,Calm,Calm,-,N/A,,Overcast,0,2014-01-27 12:58:00
7:58 AM,57.0,54.0,89,29.95,10.0,South,4.6,-,N/A,,Overcast,180,2014-01-27 13:58:00
8:58 AM,61.0,55.9,83,29.97,10.0,SSW,8.1,-,N/A,,Overcast,200,2014-01-27 14:58:00
9:30 AM,62.6,55.4,77,29.97,10.0,SSW,12.7,-,N/A,,Overcast,200,2014-01-27 15:30:00
9:35 AM,62.6,55.4,77,29.97,10.0,SSW,12.7,-,N/A,,Overcast,200,2014-01-27 15:35:00
9:58 AM,64.0,57.0,78,29.97,10.0,SSW,8.1,-,0.00,Rain,Light Rain,210,2014-01-27 15:58:00
10:04 AM,64.4,57.2,77,29.97,10.0,SSW,11.5,-,0.00,Rain,Light Rain,210,2014-01-27 16:04:00
10:10 AM,64.4,57.2,77,29.97,10.0,SW,11.5,-,0.00,Rain,Light Rain,220,2014-01-27 16:10:00
10:58 AM,68.0,57.0,68,29.95,10.0,SW,15.0,21.9,0.00,,Overcast,220,2014-01-27 16:58:00
11:45 AM,66.2,57.2,73,29.96,10.0,WNW,8.1,-,0.00,Rain,Light Rain,300,2014-01-27 17:45:00
11:53 AM,60.8,57.2,88,29.97,3.0,Variable,3.5,-,0.03,Rain,Heavy Rain,0,2014-01-27 17:53:00
11:56 AM,60.8,57.2,88,29.97,1.8,Variable,3.5,-,0.05,Rain,Heavy Rain,0,2014-01-27 17:56:00
11:58 AM,60.1,57.0,90,29.96,1.2,Calm,Calm,-,0.06,Rain,Heavy Rain,0,2014-01-27 17:58:00
12:02 PM,59.0,57.2,94,29.96,1.2,Variable,3.5,-,0.01,Rain,Heavy Rain,0,2014-01-27 18:02:00
12:07 PM,59.0,57.2,94,29.96,2.5,North,6.9,-,0.02,Rain,Rain,360,2014-01-27 18:07:00
12:11 PM,59.0,57.2,94,29.96,5.0,NNW,5.8,-,0.02,Rain,Light Rain,330,2014-01-27 18:11:00
12:15 PM,59.0,57.2,94,29.96,6.0,NNW,4.6,-,0.02,Rain,Light Rain,340,2014-01-27 18:15:00
12:19 PM,59.0,57.2,94,29.96,4.0,Variable,4.6,-,0.03,Rain,Rain,0,2014-01-27 18:19:00
12:27 PM,59.0,57.2,94,29.95,2.5,North,4.6,-,0.04,Rain,Light Rain,350,2014-01-27 18:27:00
12:31 PM,59.0,57.2,94,29.95,3.0,Variable,3.5,-,0.04,Rain,Light Rain,0,2014-01-27 18:31:00
12:52 PM,59.0,57.2,94,29.94,4.0,North,4.6,-,0.04,Rain,Light Rain,360,2014-01-27 18:52:00
12:58 PM,59.0,55.9,90,29.94,5.0,North,4.6,-,0.04,Rain,Light Rain,350,2014-01-27 18:58:00
1:17 PM,59.0,55.4,88,29.94,2.5,NNW,3.5,-,0.01,Rain,Rain,340,2014-01-27 19:17:00
1:23 PM,59.0,57.2,94,29.93,2.5,NNE,3.5,-,0.01,Rain,Light Rain,20,2014-01-27 19:23:00
1:29 PM,59.0,57.2,94,29.93,4.0,NNE,3.5,-,0.01,Rain,Light Rain,20,2014-01-27 19:29:00
1:36 PM,60.8,57.2,88,29.93,8.0,NE,3.5,-,0.01,,Overcast,40,2014-01-27 19:36:00
1:58 PM,61.0,57.9,90,29.93,10.0,Variable,3.5,-,0.01,,Overcast,0,2014-01-27 19:58:00
2:12 PM,60.8,57.2,88,29.93,10.0,NNE,3.5,-,N/A,,Overcast,20,2014-01-27 20:12:00
2:16 PM,60.8,57.2,88,29.93,10.0,Calm,Calm,-,N/A,,Overcast,0,2014-01-27 20:16:00
2:58 PM,60.1,57.9,93,29.94,9.0,Calm,Calm,-,N/A,,Overcast,0,2014-01-27 20:58:00
3:09 PM,60.8,57.2,88,29.94,10.0,Calm,Calm,-,N/A,,Overcast,0,2014-01-27 21:09:00
3:34 PM,60.8,57.2,88,29.94,8.0,North,3.5,-,N/A,,Overcast,350,2014-01-27 21:34:00
3:41 PM,60.8,57.2,88,29.95,8.0,NNE,8.1,-,N/A,,Overcast,20,2014-01-27 21:41:00
3:58 PM,57.9,55.9,93,29.95,7.0,North,5.8,-,N/A,,Overcast,360,2014-01-27 21:58:00
4:05 PM,57.2,55.4,94,29.96,8.0,North,4.6,-,N/A,,Overcast,360,2014-01-27 22:05:00
4:30 PM,57.2,55.4,94,29.96,8.0,North,3.5,-,N/A,,Overcast,10,2014-01-27 22:30:00
4:58 PM,57.9,55.0,90,29.96,8.0,North,3.5,-,N/A,,Overcast,10,2014-01-27 22:58:00
5:58 PM,57.0,55.0,93,29.98,7.0,Calm,Calm,-,N/A,,Overcast,0,2014-01-27 23:58:00
6:33 PM,57.2,55.4,94,30.00,7.0,Calm,Calm,-,N/A,,Overcast,0,2014-01-28 00:33:00
6:58 PM,57.0,55.0,93,30.01,6.0,Calm,Calm,-,N/A,,Overcast,0,2014-01-28 00:58:00
7:58 PM,55.0,53.1,93,30.02,5.0,Calm,Calm,-,N/A,,Overcast,0,2014-01-28 01:58:00
8:33 PM,55.4,51.8,88,30.02,10.0,North,9.2,-,N/A,,Overcast,360,2014-01-28 02:33:00
8:38 PM,55.4,50.0,82,30.03,10.0,North,9.2,-,N/A,,Overcast,360,2014-01-28 02:38:00
8:42 PM,55.4,48.2,77,30.03,10.0,North,9.2,-,N/A,,Overcast,10,2014-01-28 02:42:00
8:58 PM,54.0,43.0,66,30.03,10.0,North,8.1,18.4,N/A,,Overcast,10,2014-01-28 02:58:00
9:15 PM,51.8,44.6,76,30.04,10.0,North,4.6,-,N/A,,Overcast,350,2014-01-28 03:15:00
9:58 PM,50.0,37.9,63,30.05,10.0,North,8.1,-,N/A,,Overcast,360,2014-01-28 03:58:00
10:58 PM,48.0,33.1,56,30.07,10.0,North,5.8,16.1,N/A,,Overcast,10,2014-01-28 04:58:00
11:31 PM,46.4,30.2,53,30.08,10.0,North,5.8,-,N/A,,Overcast,360,2014-01-28 05:31:00
11:58 PM,46.9,30.9,54,30.09,10.0,Variable,3.5,-,N/A,,Overcast,0,2014-01-28 05:58:00